Weather History for VIDP - July, 2013

Change the Weather History Date:

Tuesday, July 23, 2013

  Actual Average Record
Temperature  
Mean Temperature 86 °F -  
Max Temperature 93 °F 92 °F 102 °F (2004)
Min Temperature 78 °F 79 °F 77 °F (2000)
Cooling Degree Days 20    
Growing Degree Days 36 (Base 50)    
Moisture  
Dew Point 79 °F    
Average Humidity 80    
Maximum Humidity 94    
Minimum Humidity 63    
Precipitation  
Precipitation 0.00 in - - ()
Sea Level Pressure  
Sea Level Pressure 29.53 in    
Wind  
Wind Speed 6 mph ()    
Max Wind Speed 9 mph    
Max Gust Speed -    
Visibility 1.5 miles    
Events      
Averages and records for this station are not official NWS values.
T = Trace of Precipitation, MM = Missing Value Source: Averaged Metar Reports

Daily Weather History Graph

Daily Weather History Graph

Search for Another Location

Airport or City:

Trip Planner

Search our weather history database for the weather conditions in past years. The results will help you decide how hot, cold, wet, or windy it might be!

Date:

Astronomy

Jul. 23, 2013 Rise Set
Actual Time 5:37 AM IST 7:17 PM IST
Civil Twilight 5:11 AM IST 7:43 PM IST
Nautical Twilight 4:40 AM IST 8:14 PM IST
Astronomical Twilight 4:07 AM IST 8:47 PM IST
Moon 7:37 PM IST (7/23) 6:05 AM IST (7/23)
Length of Visible Light 14h 31m
Length of Day
13h 39m
Full, 100% of the Moon is Illuminated
Jul 23
Full
Jul 29
Last Quarter
Aug 7
New
Aug 14
First Quarter
Aug 21
Full

Hourly Weather History & Observations

Time (IST) Temp. Heat Index Dew Point Humidity Pressure Visibility Wind Dir Wind Speed Gust Speed Precip Events Conditions
12:00 AM 80.6 °F 88.1 °F 78.8 °F 94% 29.53 in 1.4 mi East 9.2 mph - N/A   Mostly Cloudy
12:30 AM 80.6 °F 88.1 °F 78.8 °F 94% 29.53 in 1.4 mi East 8.1 mph - N/A   Mostly Cloudy
1:00 AM 80.6 °F 88.1 °F 78.8 °F 94% 29.53 in 1.4 mi East 8.1 mph - N/A   Mostly Cloudy
1:30 AM 80.6 °F 88.1 °F 78.8 °F 94% 29.53 in 1.4 mi East 8.1 mph - N/A   Mostly Cloudy
2:00 AM 80.6 °F 88.1 °F 78.8 °F 94% 29.53 in 1.4 mi East 8.1 mph - N/A   Mostly Cloudy
2:30 AM 80.6 °F 88.1 °F 78.8 °F 94% 29.53 in 1.1 mi East 6.9 mph - N/A   Mostly Cloudy
3:00 AM 80.6 °F 88.1 °F 78.8 °F 94% 29.53 in 1.1 mi ESE 8.1 mph - N/A   Mostly Cloudy
3:30 AM 80.6 °F 88.1 °F 78.8 °F 94% 29.53 in 1.1 mi ESE 3.5 mph - N/A   Mostly Cloudy
4:00 AM 80.6 °F 88.1 °F 78.8 °F 94% 29.53 in 1.1 mi East 3.5 mph - N/A   Mostly Cloudy
4:30 AM 80.6 °F 88.1 °F 78.8 °F 94% 29.53 in 1.1 mi East 3.5 mph - N/A   Mostly Cloudy
5:00 AM 80.6 °F 88.1 °F 78.8 °F 94% 29.53 in 1.1 mi East 3.5 mph - N/A   Mostly Cloudy
5:30 AM 80.6 °F 88.1 °F 78.8 °F 94% 29.53 in 1.1 mi ESE 2.3 mph - N/A   Scattered Clouds
6:00 AM 78.8 °F - 77.0 °F 94% 29.53 in 1.0 mi Calm Calm - N/A   Scattered Clouds
7:00 AM 80.6 °F 88.1 °F 78.8 °F 94% 29.56 in 0.7 mi ESE 6.9 mph - N/A   Scattered Clouds
8:00 AM 82.4 °F 92.4 °F 78.8 °F 89% 29.56 in 1.1 mi East 5.8 mph - N/A   Scattered Clouds
8:30 AM 84.2 °F 96.1 °F 78.8 °F 84% 29.59 in 1.6 mi East 5.8 mph - N/A   Scattered Clouds
9:00 AM 86.0 °F 99.3 °F 78.8 °F 79% 29.59 in 1.6 mi East 4.6 mph - N/A   Scattered Clouds
9:30 AM 87.8 °F 104.9 °F 80.6 °F 79% 29.59 in 1.6 mi East 6.9 mph - N/A   Scattered Clouds
10:00 AM 87.8 °F 104.9 °F 80.6 °F 79% 29.59 in 1.7 mi ESE 8.1 mph - N/A   Scattered Clouds
11:00 AM 87.8 °F 104.9 °F 80.6 °F 79% 29.56 in - East 5.8 mph - N/A   Scattered Clouds
11:30 AM 87.8 °F 104.9 °F 80.6 °F 79% 29.56 in - East 5.8 mph - N/A   Mostly Cloudy
12:00 PM 89.6 °F 104.7 °F 78.8 °F 70% 29.56 in - ESE 8.1 mph - N/A   Haze
12:30 PM 89.6 °F 104.7 °F 78.8 °F 70% 29.56 in - East 9.2 mph - N/A   Haze
1:00 PM 89.6 °F 104.7 °F 78.8 °F 70% 29.56 in - East 9.2 mph - N/A   Haze
1:30 PM 91.4 °F 107.2 °F 78.8 °F 66% 29.56 in - East 8.1 mph - N/A   Haze
2:00 PM 91.4 °F 107.2 °F 78.8 °F 66% 29.53 in - East 5.8 mph - N/A   Haze
2:30 PM 93.2 °F 113.6 °F 80.6 °F 67% 29.53 in - ESE 5.8 mph - N/A   Haze
3:00 PM 93.2 °F 113.6 °F 80.6 °F 67% 29.50 in - ESE 5.8 mph - N/A   Haze
3:30 PM 93.2 °F 113.6 °F 80.6 °F 67% 29.50 in - East 8.1 mph - N/A   Haze
4:00 PM 93.2 °F 110.2 °F 78.8 °F 63% 29.50 in 2.2 mi East 8.1 mph - N/A   Haze
4:30 PM 93.2 °F 110.2 °F 78.8 °F 63% 29.47 in 2.2 mi East 9.2 mph - N/A   Haze
5:00 PM 93.2 °F 110.2 °F 78.8 °F 63% 29.47 in 2.2 mi East 6.9 mph - N/A   Haze
5:30 PM 91.4 °F 107.2 °F 78.8 °F 66% 29.47 in 2.2 mi East 6.9 mph - N/A   Haze
6:00 PM 91.4 °F 107.2 °F 78.8 °F 66% 29.47 in 2.2 mi East 5.8 mph - N/A   Haze
6:30 PM 91.4 °F 107.2 °F 78.8 °F 66% 29.47 in 2.2 mi ESE 5.8 mph - N/A   Haze
7:00 PM 89.6 °F 102.2 °F 77.0 °F 66% 29.47 in - ESE 5.8 mph - N/A   Haze
8:00 PM 87.8 °F 104.9 °F 80.6 °F 79% 29.47 in 1.9 mi ENE 4.6 mph - N/A   Haze
8:30 PM 87.8 °F 104.9 °F 80.6 °F 79% 29.50 in 1.9 mi East 4.6 mph - N/A   Scattered Clouds
9:00 PM 87.8 °F 104.9 °F 80.6 °F 79% 29.50 in 1.9 mi East 4.6 mph - N/A   Haze
9:30 PM 87.8 °F 104.9 °F 80.6 °F 79% 29.50 in 1.9 mi East 4.6 mph - N/A   Scattered Clouds
10:00 PM 87.8 °F 104.9 °F 80.6 °F 79% 29.50 in 1.6 mi East 4.6 mph - N/A   Scattered Clouds
10:30 PM 86.0 °F 101.9 °F 80.6 °F 84% 29.50 in 1.6 mi East 4.6 mph - N/A   Scattered Clouds
11:00 PM 86.0 °F 101.9 °F 80.6 °F 84% 29.50 in 1.6 mi East 4.6 mph - N/A   Scattered Clouds
11:30 PM 86.0 °F 101.9 °F 80.6 °F 84% 29.53 in 1.4 mi East 4.6 mph - N/A   Scattered Clouds